TimePST,TemperatureF,Dew PointF,Humidity,Sea Level PressureIn,VisibilityMPH,Wind Direction,Wind SpeedMPH,Gust SpeedMPH,PrecipitationIn,Events,Conditions,WindDirDegrees,DateUTC
12:53 AM,48.9,46.0,90,30.19,4.0,WNW,5.8,-,N/A,,Mostly Cloudy,290,2012-11-04 07:53:00
1:53 AM,46.0,43.0,89,30.21,4.0,WNW,4.6,-,N/A,,Partly Cloudy,300,2012-11-04 08:53:00
1:53 AM,44.1,41.0,89,30.21,3.0,WNW,4.6,-,N/A,,Clear,300,2012-11-04 09:53:00
2:53 AM,44.1,42.1,93,30.23,6.0,Calm,Calm,-,N/A,,Mostly Cloudy,0,2012-11-04 10:53:00
3:53 AM,43.0,39.9,89,30.23,7.0,NW,3.5,-,N/A,,Partly Cloudy,320,2012-11-04 11:53:00
4:53 AM,46.0,43.0,89,30.25,8.0,Calm,Calm,-,N/A,,Overcast,0,2012-11-04 12:53:00
5:53 AM,45.0,42.1,90,30.26,7.0,Calm,Calm,-,N/A,,Overcast,0,2012-11-04 13:53:00
6:53 AM,45.0,42.1,90,30.28,7.0,Calm,Calm,-,N/A,,Overcast,0,2012-11-04 14:53:00
7:53 AM,46.0,43.0,89,30.30,7.0,Calm,Calm,-,N/A,,Partly Cloudy,0,2012-11-04 15:53:00
8:53 AM,51.1,46.9,86,30.30,10.0,Calm,Calm,-,N/A,,Clear,0,2012-11-04 16:53:00
9:53 AM,52.0,46.9,83,30.30,5.0,East,3.5,-,N/A,,Haze,100,2012-11-04 17:53:00
10:53 AM,53.1,46.9,80,30.29,9.0,Calm,Calm,-,N/A,,Clear,0,2012-11-04 18:53:00
11:53 AM,55.0,46.9,74,30.28,10.0,Calm,Calm,-,N/A,,Partly Cloudy,0,2012-11-04 19:53:00
12:53 PM,60.1,48.9,67,30.28,10.0,Calm,Calm,-,N/A,,Partly Cloudy,0,2012-11-04 20:53:00
1:53 PM,62.1,48.9,62,30.27,10.0,WNW,3.5,-,N/A,,Partly Cloudy,290,2012-11-04 21:53:00
2:53 PM,62.1,50.0,65,30.28,10.0,Calm,Calm,-,N/A,,Partly Cloudy,0,2012-11-04 22:53:00
3:53 PM,62.1,50.0,65,30.27,10.0,Calm,Calm,-,N/A,,Partly Cloudy,0,2012-11-04 23:53:00
4:53 PM,57.9,50.0,75,30.27,10.0,Calm,Calm,-,N/A,,Partly Cloudy,0,2012-11-05 00:53:00
5:53 PM,54.0,48.0,80,30.28,10.0,Calm,Calm,-,N/A,,Clear,0,2012-11-05 01:53:00
6:53 PM,53.1,48.0,83,30.28,10.0,Calm,Calm,-,N/A,,Clear,0,2012-11-05 02:53:00
7:53 PM,52.0,48.0,86,30.27,10.0,Calm,Calm,-,N/A,,Clear,0,2012-11-05 03:53:00
8:53 PM,51.1,46.9,86,30.28,8.0,WSW,3.5,-,N/A,,Clear,250,2012-11-05 04:53:00
9:53 PM,48.9,46.0,90,30.29,9.0,WNW,8.1,-,N/A,,Clear,290,2012-11-05 05:53:00
10:53 PM,50.0,46.9,89,30.28,10.0,NW,5.8,-,N/A,,Clear,310,2012-11-05 06:53:00